Ketchikan, AK

2:17 AM AKST on January 21, 2019 (GMT -0900)
Ketchikan International

Weather History for PAKT - November, 2018

Change the Weather History Date:

Saturday, November 10, 2018

  Actual Average Record
Temperature  
Mean Temperature 42 °F -  
Max Temperature 46 °F 45 °F 60 °F (1953)
Min Temperature 37 °F 34 °F 15 °F (1973)
Degree Days  
Heating Degree Days 24    
Moisture  
Dew Point 40 °F    
Average Humidity 87    
Maximum Humidity 93    
Minimum Humidity 76    
Precipitation  
Precipitation 0.00 in - - ()
Sea Level Pressure  
Sea Level Pressure 30.45 in    
Wind  
Wind Speed 4 mph (SE)    
Max Wind Speed 8 mph    
Max Gust Speed -    
Visibility 10 miles    
Events      
Averages and records for this station are not official NWS values.
T = Trace of Precipitation, MM = Missing Value Source: NWS Daily Summary

Daily Weather History Graph

Daily Weather History Graph

Search for Another Location

Airport or City:

Astronomy

Nov. 10, 2018 Rise Set
Actual Time 7:10 AM AKST 3:50 PM AKST
Civil Twilight 6:30 AM AKST 4:30 PM AKST
Nautical Twilight 5:45 AM AKST 5:14 PM AKST
Astronomical Twilight 5:03 AM AKST 5:57 PM AKST
Moon 10:21 AM AKST (11/10) 6:08 PM AKST (11/10)
Length of Visible Light 10h 00m
Length of Day
8h 39m
Waxing Crescent, 11% of the Moon is Illuminated
Nov 10
Waxing Crescent
Nov 15
First Quarter
Nov 22
Full
Nov 29
Last Quarter
Dec 6
New

Hourly Weather History & Observations

Time (AKST) Temp. Windchill Dew Point Humidity Pressure Visibility Wind Dir Wind Speed Gust Speed Precip Events Conditions
12:30 AM 46.4 °F 42.9 °F 41.0 °F 81% 30.39 in 10.0 mi North 6.9 mph - N/A   Overcast
12:53 AM 46.9 °F - 41.0 °F 80% 30.40 in 10.0 mi North 8.1 mph - N/A   Overcast
1:53 AM 43.0 °F - 39.0 °F 86% 30.40 in 10.0 mi Calm Calm - N/A   Scattered Clouds
2:53 AM 39.9 °F - 37.9 °F 93% 30.42 in 10.0 mi Calm Calm - N/A   Clear
3:53 AM 37.9 °F - 36.0 °F 93% 30.41 in 10.0 mi Calm Calm - N/A   Clear
4:53 AM 37.9 °F - 36.0 °F 93% 30.43 in 10.0 mi Calm Calm - N/A   Partly Cloudy
5:53 AM 37.9 °F 35.5 °F 36.0 °F 93% 30.43 in 10.0 mi SSW 3.5 mph - N/A   Mostly Cloudy
6:20 AM 39.0 °F - 37.0 °F 93% 30.42 in 10.0 mi Calm Calm - N/A   Overcast
6:53 AM 39.2 °F - 37.4 °F 93% 30.43 in 10.0 mi Calm Calm - N/A   Overcast
7:53 AM 42.1 °F 40.2 °F 39.0 °F 89% 30.45 in 10.0 mi SE 3.5 mph - N/A   Mostly Cloudy
8:53 AM 42.8 °F 40.1 °F 39.2 °F 87% 30.45 in 10.0 mi SE 4.6 mph - N/A   Mostly Cloudy
9:53 AM 44.6 °F 42.2 °F 41.0 °F 87% 30.46 in 10.0 mi ESE 4.6 mph - N/A   Mostly Cloudy
10:53 AM 44.6 °F 42.2 °F 42.8 °F 93% 30.47 in 10.0 mi SE 4.6 mph - N/A   Mostly Cloudy
11:53 AM 46.4 °F 43.5 °F 42.8 °F 87% 30.47 in 10.0 mi East 5.8 mph - N/A   Mostly Cloudy
12:53 PM 46.4 °F 44.3 °F 39.2 °F 76% 30.47 in 10.0 mi SE 4.6 mph - N/A   Overcast
1:53 PM 46.4 °F 43.5 °F 39.2 °F 76% 30.48 in 10.0 mi SE 5.8 mph - N/A   Overcast
2:51 PM 46.4 °F 45.2 °F 41.0 °F 81% 30.46 in 10.0 mi SSE 3.5 mph - N/A   Overcast
2:53 PM 46.4 °F 45.2 °F 41.0 °F 81% 30.47 in 10.0 mi SSE 3.5 mph - N/A   Overcast
3:53 PM 44.6 °F 42.2 °F 39.2 °F 81% 30.46 in 10.0 mi South 4.6 mph - N/A   Overcast
4:53 PM 44.6 °F - 41.0 °F 87% 30.48 in 10.0 mi Calm Calm - N/A   Overcast
5:53 PM 43.0 °F 41.3 °F 39.0 °F 86% 30.48 in 10.0 mi SSE 3.5 mph - N/A   Overcast
6:53 PM 42.1 °F 39.2 °F 39.9 °F 92% 30.48 in 10.0 mi SE 4.6 mph - N/A   Overcast
7:53 PM 44.6 °F 43.1 °F 41.0 °F 87% 30.48 in 10.0 mi SSE 3.5 mph - N/A   Overcast
8:53 PM 43.0 °F 40.3 °F 41.0 °F 93% 30.48 in 10.0 mi SE 4.6 mph - N/A   Overcast
9:53 PM 43.0 °F 41.3 °F 39.9 °F 89% 30.48 in 10.0 mi SSE 3.5 mph - N/A   Overcast
10:53 PM 43.0 °F 40.3 °F 39.9 °F 89% 30.49 in 10.0 mi SE 4.6 mph - N/A   Overcast
11:53 PM 43.0 °F 40.3 °F 39.9 °F 89% 30.49 in 10.0 mi SE 4.6 mph - N/A   Overcast